NOAA 16 DEB, 42339

Orbit data source: Space-Track

NOAA 16 DEB, 42339 is space debris in SSO originally from a launch on Thu, 21 Sep 2000 UTC launched from the Air Force Western Test Range (AFWTR). Debris objects in space refer to the collection of defunct objects orbiting the Earth. Examples of debris include non-operational satellites, rocket bodies, and fragments generated from explosions, collisions, or faulty payload assembly.

Loading next visibility...
Identifier
42339, 2000-055QF
Orbit
SSO
Country
Flag of USUS
Related business
Manufacturer
Unknown
Mission
Spacecraft
Bus & Motor
Unknown
Mass
Unknown
Launch date (UTC)
2000-09-21 (26 years ago)
Launch vehicle
Unknown
Launch site
Air Force Western Test Range (AFWTR)
Object type
Payload
Rocket body
Debris
Shape & HBR
Unknown shape, 0.1 m
Radar Cross Section
Medium (>0.1 m² and <1 m²)

Expand to show TLE details & history
Last TLE update: 5 days ago

TLE from 5 days ago
0 NOAA 16 DEB
1 42339U 00055QF  26202.38784116  .00003490  00000-0  10613-2 0  9990
2 42339  99.0871  74.3042 0013817 187.8428 172.2545 14.42736094532438
Epoch: 2026-07-21T09:18Z
TLE epoch observation values (Epoch: 2026-07-21T09:18:29.476Z)
Latitude
-0.00009°
Longitude
-4.47686°
Altitude
762.166 km
Speed
7.468 km/s
True Right ascension
04h 57m 13s
True Declination
0° 00' 00"
Sunlit
Object was in daylight at epoch
Visualization orbit readout
Latitude
Unknown
Longitude
Unknown
Altitude
Unknown
Speed
Unknown
Apparent Right ascension
Unknown
Apparent Declination
Unknown
Sunlit
N/A
Visualization observer readout
Local Sidereal Time
18:51:53
Azimuth
Unknown
Elevation
Unknown
Doppler factor
Unknown
Orbital elements
Apogee altitude
756.464 km
Perigee altitude
736.775 km
Semi-major axis
7,124.757 km
Eccentricity
0.00138
Inclination
99.0871°
RAAN
74.3042°
Arg. of periapsis
187.8428°
True anomaly
172.2758°
Mean anomaly
172.2545°
Eccentric anomaly
172.26515°
Mean motion
3.60901 °/min
Orbital period
99.75 mins
BSTAR
0.0010613
Loading maneuver chart data...
Computing Atmospheric mass density...

Documentation

Showing up to 5 results
|